Location: Camp Creek
(33.9000°N, 111.8167°W)
Time: 02:49:12
(UTC-07:00)

DELTA 2 R/B (1) - Visible Passes

Search period start: 19 September 2014 00:00
Search period end: 29 September 2014 00:00
Orbit: 790 x 805 km, 39.6° (Epoch: 18 September)

Date Brightness Start Highest point End Pass type
(mag) Time Alt. Az. Time Alt. Az. Time Alt. Az.
19 Sep 3.6 20:27:41 10° WNW 20:33:15 68° SSW 20:33:37 66° S visible
20 Sep 3.6 19:57:04 10° WNW 20:02:40 73° SSW 20:04:41 40° SE visible
20 Sep 6.2 21:44:44 10° W 21:45:29 13° WSW 21:45:29 13° WSW visible
21 Sep 3.6 19:26:27 10° WNW 19:32:04 78° SSW 19:35:49 21° ESE visible
21 Sep 5.6 21:13:56 10° W 21:16:37 19° WSW 21:16:37 19° WSW visible
22 Sep 3.7 18:55:51 10° WNW 19:01:28 83° SSW 19:07:03 10° ESE visible
22 Sep 5.2 20:43:10 10° W 20:47:29 23° SW 20:47:51 23° SSW visible
23 Sep 5.2 20:12:25 10° W 20:16:56 25° SW 20:19:11 20° S visible
24 Sep 5.2 19:41:41 10° W 19:46:23 28° SW 19:50:38 12° SSE visible
25 Sep 5.2 19:10:59 10° W 19:15:49 30° SW 19:20:39 10° SSE visible
26 Sep 5.1 18:40:17 10° W 18:45:16 33° SW 18:50:13 10° SSE visible
